KC5EZZ-4 Weather Reports


Display with metric or nautical units.
time (UTC)temp
F
wind
direction
speed
MPH
gust
MPH
rain 1hr
in
rain 24hr
in
rain mn
in
humidity
%
barometer
mb
20260506073059 62 51 2.0 5.0 0.00 0.00 0.00 77 1008.4
20260506071656 62 32 2.0 4.0 0.00 0.00 0.00 78 1008.7
20260506061534 64 101 0.0 3.0 0.00 0.00 0.00 75 1007.9
20260506044515 69 78 1.0 4.0 0.00 0.00 0.00 64 1007.2
20260506043009 70 52 2.0 4.0 0.00 0.00 0.00 60 1007.0
20260506041601 72 5 4.0 8.0 0.00 0.00 0.00 54 1006.9
20260506040043 74 5 3.0 5.0 0.00 0.00 0.00 49 1006.8
20260506034526 75 355 0.0 1.0 0.00 0.00 0.00 46 1006.7
20260506033025 75 355 1.0 3.0 0.00 0.00 0.00 45 1006.8
20260506031523 75 333 0.0 1.0 0.00 0.00 0.00 46 1006.5
20260506030020 76 333 0.0 0.0 0.00 0.00 0.00 46 1006.4
20260506024517 76 333 0.0 1.0 0.00 0.00 0.00 43 1006.1
20260506023031 75 333 0.0 0.0 0.00 0.00 0.00 44 1006.1
20260506021530 75 333 0.0 1.0 0.00 0.00 0.00 45 1006.1
20260506020016 76 333 0.0 4.0 0.00 0.00 0.00 45 1005.8
20260506014519 77 277 0.0 1.0 0.00 0.00 0.00 43 1005.6
20260506013018 78 269 0.0 3.0 0.00 0.00 0.00 41 1005.1
20260506011516 81 262 0.0 1.0 0.00 0.00 0.00 38 1004.8
20260506010016 83 246 0.0 3.0 0.00 0.00 0.00 35 1004.6
20260506004517 84 237 0.0 2.0 0.00 0.00 0.00 33 1004.3
20260506003016 86 258 0.0 3.0 0.00 0.00 0.00 32 1004.2
20260506001555 87 252 1.0 4.0 0.00 0.00 0.00 27 1004.1
20260506000053 88 219 2.0 5.0 0.00 0.00 0.00 25 1003.9
20260505234531 89 231 2.0 5.0 0.00 0.00 0.00 25 1004.0
20260505233030 89 259 3.0 7.0 0.00 0.00 0.00 23 1004.0
20260505231532 91 202 2.0 7.0 0.00 0.00 0.00 22 1003.9
20260505230023 93 282 3.0 13.0 0.00 0.00 0.00 21 1004.1
20260505224515 92 234 6.0 10.0 0.00 0.00 0.00 22 1004.1
20260505223012 91 217 1.0 11.0 0.00 0.00 0.00 23 1004.1
20260505221511 92 303 4.0 14.0 0.00 0.00 0.00 21 1004.1
20260505220008 93 225 2.0 7.0 0.00 0.00 0.00 22 1004.0
20260505214506 94 247 2.0 7.0 0.00 0.00 0.00 24 1004.0
20260505213014 94 241 2.0 9.0 0.00 0.00 0.00 25 1004.3
20260505211552 95 344 1.0 8.0 0.00 0.00 0.00 24 1004.4
20260505210048 94 240 3.0 14.0 0.00 0.00 0.00 25 1004.5
20260505204546 93 31 2.0 8.0 0.00 0.00 0.00 28 1004.5
20260505203105 93 238 5.0 10.0 0.00 0.00 0.00 25 1004.6
20260505201545 93 252 5.0 11.0 0.00 0.00 0.00 25 1004.8
20260505200047 92 250 2.0 9.0 0.00 0.00 0.00 30 1004.9
20260505194539 92 300 2.0 10.0 0.00 0.00 0.00 29 1005.1
20260505193036 92 248 6.0 13.0 0.00 0.00 0.00 29 1005.1
20260505191521 92 294 1.0 10.0 0.00 0.00 0.00 34 1005.3
20260505190018 91 286 2.0 9.0 0.00 0.00 0.00 39 1005.4
20260505184518 91 249 2.0 9.0 0.00 0.00 0.00 39 1005.6
20260505183020 91 267 3.0 11.0 0.00 0.00 0.00 38 1006.0
20260505181514 90 360 1.0 8.0 0.00 0.00 0.00 42 1006.1
20260505180017 89 242 3.0 10.0 0.00 0.00 0.00 43 1006.3
20260505174508 88 285 3.0 12.0 0.00 0.00 0.00 44 1006.5
20260505173003 87 217 4.0 11.0 0.00 0.00 0.00 47 1006.5
20260505171550 85 225 3.0 14.0 0.00 0.00 0.00 52 1006.5
20260505170103 84 242 5.0 13.0 0.00 0.00 0.00 55 1006.6
20260505164544 83 174 7.0 15.0 0.00 0.00 0.00 57 1006.6
20260505163041 82 219 7.0 13.0 0.00 0.00 0.00 60 1006.6
20260505161536 80 250 6.0 14.0 0.00 0.00 0.00 63 1006.5
20260505153028 77 182 6.0 13.0 0.00 0.00 0.00 69 1006.2
20260505152442 81 232 10.0 7.0 0.00 0.45 0.00
20260505151943 81 248 9.0 12.0 0.00 0.45 0.00
20260505151519 77 226 8.0 14.0 0.00 0.00 0.00 69 1006.2
20260505150941 82 243 8.0 7.0 0.00 0.45 0.00
20260505150441 82 205 7.0 9.0 0.00 0.45 0.00
20260505140427 80 200 5.0 8.0 0.00 0.45 0.00
20260505124556 67 227 2.0 5.0 0.00 0.00 0.00 82 1006.1
20260505123404 69 267 1.0 3.0 0.00 0.45 0.00
20260505123054 66 242 0.0 1.0 0.00 0.00 0.00 82 1005.9
20260505121612 66 252 0.0 2.0 0.00 0.00 0.00 82 1005.6
20260505120053 66 246 0.0 5.0 0.00 0.00 0.00 82 1005.5
20260505114548 67 288 1.0 6.0 0.00 0.00 0.00 81 1005.4
20260505113046 68 239 3.0 9.0 0.00 0.00 0.00 81 1005.2
20260505111841 66 228 6.0 9.0 0.00 0.45 0.00
20260505111546 67 240 2.0 8.0 0.00 0.00 0.00 81 1005.1
20260505101532 68 230 2.0 5.0 0.00 0.00 0.00 80 1004.9
20260505100027 68 259 3.0 7.0 0.00 0.00 0.00 80 1004.9
20260505094528 68 215 2.0 5.0 0.00 0.00 0.00 80 1005.0
20260505093030 69 252 2.0 10.0 0.00 0.00 0.00 79 1004.7
20260505091527 68 213 2.0 8.0 0.00 0.00 0.00 80 1005.0
20260505090008 68 240 0.0 2.0 0.00 0.00 0.00 79 1005.4
20260505084507 69 236 0.0 9.0 0.00 0.00 0.00 78 1005.4
20260505083002 69 257 1.0 4.0 0.00 0.00 0.00 78 1005.5
20260505081604 69 222 0.0 5.0 0.00 0.00 0.00 77 1005.6
20260505081501 69 230 0.0 5.0 0.00 0.00 0.00 77 1005.5